Regional Weather Roundup
Issued by NWS Charleston, SC

Current Version | Previous Version | Graphics & Text | Print | Product List | Glossary On
Versions: 1 2 3 4 5 6 7 8 9 10 11 12 13 14 15 16 17 18 19 20 21 22 23 24 25 26 27 28 29 30 31 32 33 34 35 36 37 38 39 40 41 42 43 44 45 46 47 48 49 50
000
ASUS42 KCHS 311228
RWRCHS

REGIONAL WEATHER ROUNDUP
NATIONAL WEATHER SERVICE CHARLESTON SC
800 AM EDT WED AUG 31 2016

NOTE: "FAIR" INDICATES FEW OR NO CLOUDS BELOW 12,000 FEET WITH NO
SIGNIFICANT WEATHER AND/OR OBSTRUCTIONS TO VISIBILITY.

NOT ALL STATIONS ARE QUALITY CONTROLLED. USE DATA WITH CAUTION...
ESPECIALLY DEWPOINT OBSERVATIONS.

SCZ027-030-031-034>040-042>050-311300-
...SOUTHEAST SOUTH CAROLINA...

CITY           SKY/WX    TMP DP  RH WIND       PRES   REMARKS
N CHARLESTON   CLOUDY    76  71  85 SE10      29.98R
6HR MIN TEMP:  74; 6HR MAX TEMP:  77; 6HR PCP:  0.03;

WATERFRONT PRK   N/A     78  75  90 SE14      29.97R
MOUNT PLEASANT HVY RAIN  75  73  94 CALM      29.99R
JOHNS ISLAND   LGT RAIN  75  73  94 NE8       29.98R
PINOPOLIS        N/A     75  73  94 VRB2      29.91R
MONCKS CORNER  PTSUNNY   73  72  94 CALM      29.99R
SUMMERVILLE    PTSUNNY   73  73 100 CALM      30.00R
BEAUFORT MCAS  TSTM      76  74  93 E12       29.96S
6HR MIN TEMP:  75; 6HR MAX TEMP:  79; 6HR PCP:  0.49;

BEAUFORT ARPT  PTSUNNY   75  73  94 E9        29.95F
HILTON HEAD IS PTSUNNY   79  72  78 NE9       29.95S
WALTERBORO     CLOUDY    77  77 100 E5        29.98S
ALLENDALE      FAIR      73  72  94 CALM      29.96S

...SOUTHERN MIDLANDS AND PEE DEE...

CITY           SKY/WX    TMP DP  RH WIND       PRES   REMARKS
GEORGETOWN     RAIN      73  72  94 CALM      30.00S
KINGSTREE      FAIR      72  66  83 CALM      29.99F
ORANGEBURG     CLOUDY    74  72  93 E5        29.98S
6HR MIN TEMP:  70; 6HR MAX TEMP:  74;

BARNWELL       NOT AVBL
AIKEN          FAIR      72  70  94 N7        30.03R
MANNING        PTSUNNY   72  68  88 CALM      30.00R
COLUMBIA       MOSUNNY   72  69  90 CALM      29.98S
6HR MIN TEMP:  71; 6HR MAX TEMP:  76;

SUMTER         SUNNY     73  68  86 NE3       29.97S
6HR MIN TEMP:  71; 6HR MAX TEMP:  74;

FLORENCE       MOSUNNY   75  68  78 E3        30.00R
6HR MIN TEMP:  73; 6HR MAX TEMP:  76;

MYRTLE BEACH   PTSUNNY   75  66  73 N3        30.02R
N MYRTLE BEACH CLOUDY    76  74  93 N3        29.99R
6HR MIN TEMP:  73; 6HR MAX TEMP:  77; 6HR PCP:  1.20;


$$

GAZ063-065-086>088-099>101-113>116-118-119-134>141-150-311300-
...SOUTHEAST GEORGIA...

CITY           SKY/WX    TMP DP  RH WIND       PRES   REMARKS
SAVANNAH ARPT  PTSUNNY   77  73  87 NE9       29.94R
6HR MIN TEMP:  76; 6HR MAX TEMP:  78; 6HR PCP:  0.16;

HUNTER AAF     PTSUNNY   77  77 100 NE3       29.91R
6HR MIN TEMP:  75; 6HR MAX TEMP:  79; 6HR PCP:  0.12;

FORT STEWART   LGT RAIN  75  73  94 N5        29.90R
                                      6HR PCP:  0.44;

STATESBORO     SUNNY     76  74  94 NE6       29.95S
SYLVANIA       NOT AVBL
CLAXTON        CLOUDY    77  76  96 N7        29.94S FOG

...CSRA...CENTRAL AND FAR SOUTHEAST GEORGIA...

CITY           SKY/WX    TMP DP  RH WIND       PRES   REMARKS
THOMSON        SUNNY     73  73 100 CALM      30.03F
AUGUSTA-BUSH   SUNNY     73  71  93 CALM      29.97S
6HR MIN TEMP:  70; 6HR MAX TEMP:  73;

AUGUSTA-DANIEL SUNNY     75  70  84 N6        29.99S
SWAINSBORO     FAIR      75  72  88 NE6       29.97S
VIDALIA        PTSUNNY   77  75  94 NE9       29.94F
EASTMAN        PTSUNNY   75  75 100 NE6       29.97S
HAZLEHURST     CLOUDY    76  76 100 CALM      29.92S
ALMA           CLOUDY    75  74  96 VRB3      29.91R
6HR MIN TEMP:  74; 6HR MAX TEMP:  75; 6HR PCP: TRACE;

WAYCROSS         N/A     77  77 100 CALM      29.91R
JESUP          CLOUDY    77  77 100 NE5       29.91R
BAXLEY         CLOUDY    77  77 100 NE8       29.91F
BRUNSWICK      CLOUDY    79  79 100 CALM      29.89S
SAINT SIMONS   MOSUNNY   76  76 100 SW6       29.88R
6HR MIN TEMP:  76; 6HR MAX TEMP:  79; 6HR PCP:  0.01;


$$

SCZ027-028-034-036>038-045-046-048>050-GAZ119-141-311300-
...LAKE AND SUPPLEMENTAL COASTAL OBSERVATIONS...

STATION/POSITION TIME  TEMP    WIND        PRES    WAVE   SWELL
                       AIR SEA DIR/SP/G            HT/PER HT/PER/DIR
                 (UTC) (F)     (DEG/KT/KT) (MB)    (FT/S) (FT/S/D)
WINYAH BAY       1145   77     330/  1     1015.0R
LAKE MURRAY      1100   75     360/  1/  2 1015.2R
ACE BASIN NERRS  1100   75      80/  4     1015.0R
FORT PULASKI     1200   79 84   80/ 20/ 22 1014.0R
SAPELO ISLAND    1200   79     100/  5     1012.0S

$$

ANZ835-935-AMZ111-154-330-350-352-354-370-450-454-472-311300-
...C-MAN AND BUOY OBSERVATIONS...

STATION/POSITION TIME  TEMP    WIND        PRES    WAVE   SWELL
                       AIR SEA DIR/SP/G            HT/PER HT/PER/DIR
                 (UTC) (F)     (DEG/KT/KT) (MB)    (FT/S) (FT/S/D)
BUOY 41004       1150   79 84  150/ 10/ 12 1014.6R   4/10   3/120/10
BUOY 41008       1150   78 85   90/ 16/ 19 1011.7S   6/ 6   2/ 90/11
FOLLY BEACH CMAN 1200   77      60/ 16/ 19 1015.5R
CAPERS NEARSHORE 1208   76 83   70/ 10/ 14 1015.0R
FRIPP NEARSHORE  1208   80 85  100/ 14/ 17 1013.4R


STATION/POSITION TIME  TEMP    WIND        PRES    WAVE   SWELL
                       AIR SEA DIR/SP/G            HT/PER HT/PER/DIR
                 (UTC) (F)     (DEG/KT/KT) (MB)    (FT/S) (FT/S/D)
5E ST. MARYS GA  1201      84                N/A     5/12   2/100/12
FRYING PAN BUOY  1200   82 84   50/  2/  4 1015.1R
BUOY 41025       1150   81 85  350/ 12/ 14 1014.4R   4/11   5/110/11
CAPE LOOKOUT NC  1200   78     350/ 10/ 12 1015.0R
BUOY 41002       1150   83 83  240/  6/  8 1016.2R   4/10   3/ 80/10
BUOY 41010       NOT AVBL
ST AUGUSTINE FL  1200   76 82  210/  6/  7 1013.7R


$$



USA.gov is the U.S. government's official web portal to all federal, state and local government web resources and services.